Location: *
(55.5817°S, 142.4781°W)
Time: 07:37:07
(UTC+00:00)

Cosmos 1072 Rocket - Pass Details

Date: 29 April 2025
Orbit: 948 x 1007 km, 82.9° (Epoch: 23 May)

Event Time Altitude Azimuth Distance (km) Brightness Sun altitude
Rises 15:27:01 0° 345° (NNW) 3,670 7.4 -12.1°
Reaches altitude 10° 15:29:32 10° 343° (NNW) 2,721 6.8 -11.7°
Maximum altitude 15:35:46 76° 257° (WSW) 1,006 4.4 -10.9°
Drops below altitude 10° 15:42:01 10° 170° (S) 2,720 6.8 -10.0°
Sets 15:44:32 0° 168° (SSE) 3,668 7.5 -9.7°
